{"data":{"norad_id":40269,"epoch":"2026-05-24T21:17:31.856064Z","epoch_age_seconds":84728,"freshness":"FRESH","line1":"1 40269U 14061A   26144.88717426 -.00000163  00000+0  00000+0 0  9992","line2":"2 40269   6.4588  89.3694 0022498 359.8682 195.6488  1.00273023 42453","mean_motion":1.00273023,"eccentricity":0.0022498,"inclination_deg":6.4588,"raan_deg":89.3694,"arg_perigee_deg":359.8682,"mean_anomaly_deg":195.6488,"bstar":0,"rev_number":4245,"period_min":1436.079173558,"perigee_km":35691.386475254,"apogee_km":35881.109341588,"semimajor_km":42164.384908421,"source":"CELESTRAK","updated_at":"2026-05-25T13:38:23.520727Z"}}